Regional Weather Roundup
Issued by NWS Upton, NY

Current Version | Previous Version | Graphics & Text | Print | Product List | Glossary Off
Versions: 1 2 3 4 5 6 7 8 9 10 11 12 13 14 15 16 17 18 19 20 21 22 23 24 25 26 27

000
ASUS41 KOKX 162105
RWROKX

REGIONAL WEATHER ROUNDUP
NATIONAL WEATHER SERVICE NEW YORK NY
500 PM EDT WED APR 16 2014

NOTE: "FAIR" INDICATES FEW OR NO CLOUDS BELOW 12,000 FEET WITH NO
SIGNIFICANT WEATHER AND/OR OBSTRUCTIONS TO VISIBILITY.

NYZ071-072-176-178-NJZ106-104-162200-
NEW YORK CITY METRO AREA


CITY           SKY/WX    TMP DP  RH WIND       PRES   REMARKS
CENTRAL PARK   SUNNY     48  17  29 VRB3      30.44R
LAGUARDIA APRT MOSUNNY   47  18  31 N10G17    30.41R
KENNEDY INTL   SUNNY     49  16  26 N14G20    30.42R
NEWARK/LIBERTY MOSUNNY   48  14  25 N13G25    30.42R
TETERBORO      SUNNY     49  18  29 VRB6G17   30.41S
$$

NYZ177-179-078>081-162200-
LONG ISLAND NEW YORK

CITY           SKY/WX    TMP DP  RH WIND       PRES   REMARKS
FARMINGDALE    SUNNY     45  17  32 N12G21    30.41R
ISLIP          MOSUNNY   46  14  27 N17G25    30.39R
SHIRLEY        SUNNY     45  15  30 N17G25    30.41S
WESTHAMPTON    SUNNY     47  15  27 N13G22    30.41R
MONTAUK POINT    N/A     47  20  34 NW10      30.40R
$$

NYZ052-065-067-162200-
HUDSON VALLEY

CITY           SKY/WX    TMP DP  RH WIND       PRES   REMARKS
WHITE PLAINS   SUNNY     44  19  36 N9        30.40R
NEWBURGH       SUNNY     45  14  29 NE12      30.43R
MONTGOMERY     SUNNY     46  15  28 MISG      30.41R
POUGHKEEPSIE   SUNNY     45  14  28 N8        30.43R
ALBANY         MOSUNNY   41  13  31 W10       30.46R
$$

NJZ001-105-106-008-010-013-015-019>022-104-162200-
NEW JERSEY

CITY           SKY/WX    TMP DP  RH WIND       PRES   REMARKS
NEWARK/LIBERTY MOSUNNY   48  14  25 N13G25    30.42R
TETERBORO      SUNNY     49  18  29 VRB6G17   30.41S
CALDWELL       SUNNY     46  15  28 N7G18     30.43R
MORRISTOWN     SUNNY     48  14  25 N12G18    30.43S
SOMERVILLE     SUNNY     46  15  28 N12G21    30.42R
LINDEN         FAIR      49  17  27 N7        30.44S
SUSSEX           N/A     46  16  30 N9G18     30.42S
ANDOVER          N/A     42  16  34 N9G17     30.42S
TRENTON        SUNNY     46  18  32 NW9G22    30.42S
MILLVILLE      SUNNY     49  20  31 N13G24    30.41R
ATLANTIC CITY  SUNNY     49  21  33 NE12      30.40R
WRIGHTSTOWN    SUNNY     47  21  35 N15       30.40R
TOMS RIVER     SUNNY     48  21  34 N9        30.41S
BELMAR         SUNNY     46  18  31 N15       30.41S
$$

PAZ047>061-062-071-162200-
EASTERN PENNSYLVANIA

CITY           SKY/WX    TMP DP  RH WIND       PRES   REMARKS
PHILADELPHIA   SUNNY     48  16  27 N17       30.44S
ALLENTOWN      SUNNY     45  17  32 N13       30.44S
SCRANTON       SUNNY     40  18  41 NW12      30.44S WCI  33
$$

CTZ002-004>006-009-010-012-RIZ004-006-007-MAZ004-011-015-162200-
SOUTHERN NEW ENGLAND
 IN CT

CITY           SKY/WX    TMP DP  RH WIND       PRES   REMARKS
BRADLEY INTL   MOSUNNY   44  12  27 N10       30.41R
HARTFORD       SUNNY     44  12  27 N13       30.42R
DANBURY        SUNNY     42  16  34 N16G22    30.42S
WTRBRY/OXFORD  SUNNY     39  16  38 NW9G17    30.43R WCI  33
BRIDGEPORT     SUNNY     47  12  24 N17       30.41R
MERIDEN        SUNNY     44  12  27 NW17G23   30.42R
NEW HAVEN      SUNNY     46  12  25 N12G28    30.41R
CHESTER        FAIR      43  12  28 N13G21    30.39R
GROTON         SUNNY     47  15  27 N16       30.39R
WILLIMANTIC    SUNNY     45  13  27 NW12G23   30.40R

 IN RI

CITY           SKY/WX    TMP DP  RH WIND       PRES   REMARKS
PROVIDENCE     MOSUNNY   45  18  34 N13G24    30.40R
BLOCK ISLAND   SUNNY     45  19  36 NW6       30.39R
WESTERLY       SUNNY     47  16  29 VRB7G18   30.39R

 IN MA

CITY           SKY/WX    TMP DP  RH WIND       PRES   REMARKS
BOSTON         SUNNY     44  15  31 N18G26    30.41R
WORCESTER      SUNNY     38  16  40 N10G17    30.38R WCI  31
WESTFIELD      SUNNY     45  15  30 N15       30.42R
PROVINCETOWN   SUNNY     39  21  48 MISG      30.42R
NANTUCKET      SUNNY     42  17  36 N23G31    30.38R
$$

ANZ330-335-338-340-345-350-353-355-162200-
COASTAL MARINE OBSERVATIONS


STATION/POSITION TIME  SKY/WX   TEMP    WIND        PRES    VSBY  WAVE
                                AIR SEA DIR/SP/G                  HT/PER
                 (UTC)          (F)     (DEG/KT/KT) (MB)    (MI)  (FT/S)
NY HARB ENTRANCE 2100            44 43  360/ 10/ 12 1029.7
4S FIRE IS       2000               44                N/A           4/12
23SW MTP         2100            42 42  360/ 12/ 16 1028.9          4/10
HUDSON CANYON    2000            39 45  360/ 17/ 21 1029.1          8/ 6
EXECUTION ROCKS  2100            45 42  350/ 12/ 17   N/A
WESTERN LI SOUND 2100            44     360/ 10/ 16   N/A           1/ 2
CENTRAL LI SOUND 2000            42 42  320/ 14/ 17   N/A           2/ 3
EASTERN LI SOUND NOT AVBL
ROBBINS REEF     2100            44     340/ 16/ 20   N/A
$$


>>>>>>>>>>>>>>>>>>>>>>>>>>>> KEY <<<<<<<<<<<<<<<<<<<<<<<<<<<
>                                                          <
>     SKY/WX - SKY CONDITION/PRESENT WEATHER               <
>     TMP    - TEMPERATURE IN FAHRENHEIT                   <
>     DP     - DEWPOINT IN FAHRENHEIT                      <
>     RH     - RELATIVE HUMIDITY IN PERCENT                <
>     WIND   - DIRECTION AND SPEED IN MPH                  <
>     PRES   - MEAN SEA LEVEL PRESSURE IN INCHES OF HG     <
>     WCI    - WIND CHILL INDEX                            <
>     VSB    - VISIBILITY IN MILES                         <
>     HX     - HEAT INDEX                                  <
>     TC     - TEMPERATURE IN CELSIUS                      <
>     VRB    - VARIABLE WIND DIRECTION                     <
>                                                          <
>>>>>>>>>>>>>>>>>>>>>>>>>>>> KEY <<<<<<<<<<<<<<<<<<<<<<<<<<<





USA.gov is the U.S. government's official web portal to all federal, state and local government web resources and services.